Location: Winthrop
(48.4780°N, 120.1850°W)
Time: 00:40:56
(UTC-07:00)

CAS-6 - Visible Passes

Search period start: 16 May 2022 00:00
Search period end: 26 May 2022 00:00
Orbit: 614 x 633 km, 97.9° (Epoch: 15 May)

Date Brightness Start Highest point End Pass type
(mag) Time Alt. Az. Time Alt. Az. Time Alt. Az.
16 May ? 00:21:55 17° WSW 00:23:05 19° W 00:26:15 10° NW visible
16 May ? 21:28:25 10° ENE 21:29:38 11° NE 21:30:51 10° NE visible
16 May ? 23:03:18 36° SSE 23:05:02 76° ENE 23:09:27 10° N visible
17 May ? 00:40:32 12° WSW 00:41:47 13° W 00:43:48 10° WNW visible
17 May ? 21:45:16 10° E 21:47:52 16° ENE 21:50:30 10° NNE visible
17 May ? 23:21:56 38° S 23:23:32 71° WSW 23:27:56 10° NNW visible
18 May ? 22:03:19 12° ESE 22:06:09 22° ENE 22:09:33 10° NNE visible
18 May ? 23:40:33 33° SSW 23:42:05 46° W 23:46:20 10° NNW visible
19 May ? 22:21:57 18° ESE 22:24:29 31° ENE 22:28:23 10° N visible
19 May ? 23:59:11 25° SW 00:00:39 31° W 00:04:35 10° NNW visible
20 May ? 22:40:34 24° SE 22:42:52 46° ENE 22:47:06 10° N visible
21 May ? 00:17:49 18° WSW 00:19:18 21° W 00:22:38 10° NW visible
21 May ? 21:25:19 10° ENE 21:25:56 10° NE 21:26:33 10° NE visible
21 May ? 22:59:12 30° SSE 23:01:17 70° ENE 23:05:41 10° N visible
22 May ? 00:36:27 12° WSW 00:37:59 14° W 00:40:19 10° NW visible
22 May ? 21:41:44 10° E 21:44:10 15° ENE 21:46:36 10° NNE visible
22 May ? 23:17:50 33° S 23:19:46 78° WSW 23:24:12 10° NNW visible
23 May ? 21:59:13 10° ESE 22:02:25 21° ENE 22:05:42 10° NNE visible
23 May ? 23:36:28 30° SSW 23:38:17 51° W 23:42:36 10° NNW visible
24 May ? 22:17:51 15° ESE 22:20:44 29° ENE 22:24:34 10° N visible
24 May ? 23:55:06 24° SW 23:56:51 33° W 00:00:53 10° NNW visible
25 May ? 22:36:29 20° SE 22:39:06 43° ENE 22:43:17 10° N visible
